IZ6SAC-13 Weather Reports


time (UTC)temp
C
wind
direction
speed
KPH
gust
KPH
rain 1hr
cm
rain 24hr
cm
rain mn
cm
humidity
%
barometer
mb
20260503182023 17 102 0.0 1.6 0.00 0.00 0.00 54 1016.9
20260503175029 18 0.0 0.0 0.00 0.00 0.00 54 1016.9
20260503172033 18 93 4.8 6.4 0.00 0.00 0.00 54 1016.8
20260503072019 19 230 3.2 6.4 0.00 0.00 0.00 46 1020.4
20260503055032 16 232 0.0 3.2 0.00 0.00 0.00 48 1020.1
20260503052036 13 230 6.4 11.3 0.00 0.00 0.00 50 1020.0
20260503045019 14 234 6.4 12.9 0.00 0.00 0.00 49 1019.8
20260503042022 12 230 4.8 12.9 0.00 0.00 0.00 56 1019.7
20260503035026 11 230 4.8 9.7 0.00 0.00 0.00 57 1019.8
20260503032029 11 228 3.2 6.4 0.00 0.00 0.00 60 1019.8
20260503025032 10 228 1.6 4.8 0.00 0.00 0.00 62 1019.9
20260503022036 11 233 4.8 11.3 0.00 0.00 0.00 60 1020.0
20260503015019 11 235 6.4 11.3 0.00 0.00 0.00 60 1020.1
20260503012022 12 236 6.4 11.3 0.00 0.00 0.00 61 1020.2
20260503005027 11 226 1.6 3.2 0.00 0.00 0.00 64 1020.5
20260503002032 12 227 1.6 3.2 0.00 0.00 0.00 60 1020.8
20260502235018 12 231 3.2 4.8 0.00 0.00 0.00 59 1020.9
20260502232023 11 228 0.0 1.6 0.00 0.00 0.00 60 1021.2
20260502225028 12 229 1.6 3.2 0.00 0.00 0.00 58 1021.4
20260502222032 12 229 0.0 1.6 0.00 0.00 0.00 55 1021.6
20260502215035 12 337 0.0 1.6 0.00 0.00 0.00 57 1021.8
20260502212018 12 21 0.0 1.6 0.00 0.00 0.00 54 1021.8
20260502205022 13 0.0 0.0 0.00 0.00 0.00 50 1021.8
20260502202025 13 22 0.0 1.6 0.00 0.00 0.00 50 1021.8
20260502195028 12 0.0 0.0 0.00 0.00 0.00 51 1021.9
20260502192032 13 0.0 0.0 0.00 0.00 0.00 47 1021.7
20260502185036 15 27 0.0 1.6 0.00 0.00 0.00 47 1021.6